Olathe, KS

12:39 AM CST on January 24, 2018 (GMT -0600)
Johnson County Executive

Weather History for KOJC - June, 2013

Change the Weather History Date:

Friday, June 7, 2013

  Actual Average Record
Temperature  
Mean Temperature 65 °F 71 °F  
Max Temperature 75 °F 81 °F 94 °F (1963)
Min Temperature 55 °F 62 °F 50 °F (1955)
Degree Days  
Heating Degree Days 0 0  
Month to date heating degree days 14 6  
Since 1 June heating degree days 14 6  
Since 1 July heating degree days 5099 4932  
Cooling Degree Days 0 7  
Month to date cooling degree days 4 44  
Year to date cooling degree days 105 148  
Since 1 June cooling degree days 4 44  
Growing Degree Days 15 (Base 50)    
Moisture  
Dew Point 51 °F    
Average Humidity 64    
Maximum Humidity 86    
Minimum Humidity 41    
Precipitation  
Precipitation 0.00 in 0.22 in 1.13 in (1993)
Month to date precipitation 0.95 1.52  
Year to date precipitation 18.88 16.26  
Sea Level Pressure  
Sea Level Pressure 29.95 in    
Wind  
Wind Speed 5 mph (NNE)    
Max Wind Speed 15 mph    
Max Gust Speed 20 mph    
Visibility 10 miles    
Events      
T = Trace of Precipitation, MM = Missing Value Source: NWS Daily Summary

Daily Weather History Graph

Daily Weather History Graph

Search for Another Location

Airport or City:

Trip Planner

Search our weather history database for the weather conditions in past years. The results will help you decide how hot, cold, wet, or windy it might be!

Date:

Astronomy

Jun. 07, 2013 Rise Set
Actual Time 5:53 AM CDT 8:42 PM CDT
Civil Twilight 5:22 AM CDT 9:14 PM CDT
Nautical Twilight 4:42 AM CDT 9:53 PM CDT
Astronomical Twilight 3:56 AM CDT 10:39 PM CDT
Moon 5:16 AM CDT (6/7) 7:57 PM CDT (6/7)
Length of Visible Light 15h 51m
Length of Day
14h 48m
Waning Crescent, 1% of the Moon is Illuminated
Jun 7
Waning Crescent
Jun 8
New
Jun 16
First Quarter
Jun 23
Full
Jun 29
Last Quarter

Hourly Weather History & Observations

Time (CDT) Temp. Dew Point Humidity Pressure Visibility Wind Dir Wind Speed Gust Speed Precip Events Conditions
12:53 AM 62.1 °F 51.1 °F 67% 29.95 in 10.0 mi NNW 4.6 mph - N/A   Clear
1:53 AM 60.1 °F 51.1 °F 72% 29.95 in 10.0 mi NNW 3.5 mph - N/A   Clear
2:53 AM 57.9 °F 52.0 °F 81% 29.95 in 10.0 mi Calm Calm - N/A   Clear
3:53 AM 57.0 °F 52.0 °F 83% 29.95 in 10.0 mi NW 3.5 mph - N/A   Partly Cloudy
4:53 AM 57.0 °F 53.1 °F 87% 29.96 in 10.0 mi NW 5.8 mph - N/A   Overcast
5:53 AM 57.0 °F 53.1 °F 87% 29.97 in 10.0 mi North 4.6 mph - N/A   Clear
6:53 AM 57.0 °F 54.0 °F 89% 29.97 in 10.0 mi NNE 3.5 mph - N/A   Clear
7:53 AM 62.1 °F 55.0 °F 78% 29.98 in 10.0 mi North 6.9 mph - N/A   Clear
8:53 AM 64.0 °F 54.0 °F 70% 30.00 in 10.0 mi NNE 4.6 mph - N/A   Clear
9:53 AM 66.9 °F 54.0 °F 63% 29.99 in 10.0 mi NNE 4.6 mph - N/A   Clear
10:53 AM 69.1 °F 52.0 °F 54% 29.99 in 10.0 mi NNW 9.2 mph - N/A   Mostly Cloudy
11:53 AM 70.0 °F 50.0 °F 49% 29.99 in 10.0 mi North 9.2 mph - N/A   Scattered Clouds
12:53 PM 72.0 °F 48.9 °F 44% 29.97 in 10.0 mi North 10.4 mph 16.1 mph N/A   Mostly Cloudy
1:53 PM 71.1 °F 48.0 °F 44% 29.96 in 10.0 mi North 8.1 mph - N/A   Mostly Cloudy
2:53 PM 71.1 °F 50.0 °F 47% 29.95 in 10.0 mi Variable 5.8 mph - N/A   Scattered Clouds
3:53 PM 71.1 °F 48.0 °F 44% 29.94 in 10.0 mi North 8.1 mph - N/A   Scattered Clouds
4:53 PM 73.0 °F 50.0 °F 44% 29.93 in 10.0 mi NE 6.9 mph - N/A   Mostly Cloudy
5:19 PM 73.4 °F 48.2 °F 41% 29.94 in 10.0 mi North 4.6 mph - N/A   Mostly Cloudy
5:53 PM 73.0 °F 48.9 °F 42% 29.91 in 10.0 mi NE 3.5 mph - N/A   Mostly Cloudy
6:53 PM 73.0 °F 48.9 °F 42% 29.90 in 10.0 mi Variable 4.6 mph - N/A   Mostly Cloudy
7:53 PM 71.1 °F 48.9 °F 45% 29.90 in 10.0 mi NNE 4.6 mph - N/A   Partly Cloudy
8:53 PM 68.0 °F 50.0 °F 52% 29.91 in 10.0 mi East 3.5 mph - N/A   Mostly Cloudy
9:53 PM 64.9 °F 51.1 °F 61% 29.92 in 10.0 mi East 4.6 mph - N/A   Clear
10:53 PM 62.1 °F 51.1 °F 67% 29.94 in 10.0 mi ESE 3.5 mph - N/A   Clear
11:53 PM 62.1 °F 51.1 °F 67% 29.94 in 10.0 mi ESE 3.5 mph - N/A   Clear